QPF
0.11 0.12 0.13 0.12 0.10 0.10 0.11 0.12 0.12 0.11 0.10 0.11 0.12 0.09 0.08 0.10 0.20 0.13 0.05 0.03 0.02 0.01 0.00 0.00 0.01 0.01 0.01 0.02 0.03 0.04 0.03 0.03 0.02 0.02 0.01 0.01 0.01 0.01
0.12 0.13 0.14 0.14 0.14 0.12 0.11 0.12 0.12 0.11 0.10 0.10 0.13 0.11 0.13 0.14 0.19 0.11 0.09 0.11 0.06 0.02 0.01 0.01 0.01 0.01 0.01 0.01 0.01 0.01 0.01 0.01 0.01 0.01 0.01 0.01 0.01 0.01
0.11 0.14 0.14 0.16 0.16 0.15 0.14 0.13 0.12 0.12 0.09 0.09 0.12 0.13 0.16 0.19 0.17 0.13 0.14 0.13 0.07 0.03 0.02 0.01 0.01 0.01 0.01 0.01 0.01 0.01 0.01 0.01 0.01 0.01 0.01 0.01 0.01 0.01
0.07 0.09 0.11 0.16 0.16 0.14 0.13 0.12 0.11 0.10 0.10 0.09 0.09 0.09 0.11 0.15 0.16 0.17 0.16 0.13 0.09 0.07 0.04 0.02 0.02 0.01 0.01 0.01 0.01 0.01 0.01 0.01 0.02 0.01 0.01 0.01 0.01 0.01
0.07 0.07 0.08 0.13 0.16 0.15 0.13 0.11 0.11 0.11 0.12 0.10 0.09 0.09 0.09 0.12 0.15 0.16 0.16 0.16 0.12 0.10 0.09 0.06 0.04 0.04 0.03 0.03 0.03 0.03 0.03 0.02 0.02 0.02 0.02 0.02 0.01 0.01
0.06 0.07 0.08 0.09 0.12 0.13 0.13 0.12 0.13 0.14 0.14 0.13 0.11 0.09 0.08 0.10 0.12 0.13 0.14 0.14 0.14 0.11 0.11 0.10 0.09 0.08 0.08 0.07 0.06 0.05 0.05 0.04 0.04 0.03 0.03 0.02 0.02 0.01
0.05 0.05 0.06 0.07 0.07 0.09 0.11 0.13 0.13 0.14 0.15 0.15 0.13 0.11 0.10 0.11 0.10 0.10 0.12 0.14 0.17 0.16 0.14 0.11 0.10 0.08 0.07 0.07 0.07 0.07 0.06 0.05 0.05 0.04 0.03 0.03 0.03 0.02
0.06 0.06 0.05 0.06 0.07 0.06 0.06 0.08 0.10 0.11 0.11 0.11 0.12 0.13 0.11 0.10 0.09 0.11 0.12 0.15 0.20 0.18 0.16 0.16 0.14 0.12 0.09 0.08 0.09 0.09 0.08 0.08 0.08 0.07 0.06 0.04 0.04 0.03
0.07 0.06 0.04 0.04 0.07 0.09 0.08 0.07 0.08 0.09 0.10 0.11 0.10 0.11 0.13 0.13 0.13 0.13 0.13 0.13 0.14 0.17 0.18 0.21 0.21 0.18 0.14 0.13 0.14 0.13 0.12 0.12 0.11 0.10 0.08 0.05 0.04 0.03
0.06 0.05 0.05 0.05 0.07 0.09 0.09 0.09 0.09 0.08 0.07 0.08 0.10 0.11 0.12 0.14 0.16 0.19 0.20 0.20 0.20 0.22 0.23 0.25 0.23 0.22 0.19 0.17 0.18 0.15 0.13 0.12 0.12 0.11 0.09 0.07 0.04 0.03
0.06 0.04 0.05 0.06 0.05 0.05 0.06 0.09 0.10 0.12 0.11 0.09 0.11 0.13 0.15 0.17 0.19 0.22 0.27 0.28 0.28 0.27 0.22 0.21 0.22 0.21 0.23 0.23 0.20 0.17 0.14 0.12 0.11 0.09 0.07 0.05 0.04 0.03
0.06 0.05 0.06 0.04 0.02 0.03 0.05 0.08 0.11 0.15 0.15 0.11 0.11 0.12 0.14 0.16 0.20 0.21 0.23 0.25 0.25 0.27 0.24 0.18 0.18 0.20 0.26 0.25 0.21 0.17 0.15 0.13 0.11 0.08 0.06 0.05 0.03 0.02
0.05 0.07 0.06 0.04 0.02 0.03 0.06 0.09 0.12 0.13 0.15 0.16 0.18 0.17 0.17 0.18 0.21 0.27 0.28 0.24 0.20 0.18 0.16 0.15 0.17 0.16 0.16 0.19 0.19 0.16 0.12 0.11 0.09 0.08 0.05 0.04 0.03 0.01
0.03 0.04 0.04 0.03 0.03 0.03 0.05 0.08 0.12 0.12 0.14 0.18 0.22 0.22 0.20 0.20 0.21 0.24 0.28 0.27 0.20 0.17 0.15 0.13 0.14 0.14 0.13 0.13 0.14 0.15 0.14 0.11 0.09 0.07 0.05 0.04 0.03 0.02
0.01 0.01 0.02 0.02 0.03 0.03 0.06 0.09 0.11 0.12 0.18 0.20 0.22 0.23 0.22 0.21 0.20 0.22 0.24 0.27 0.24 0.21 0.18 0.14 0.13 0.13 0.12 0.12 0.11 0.11 0.11 0.10 0.07 0.06 0.05 0.03 0.02 0.01
0.01 0.01 0.01 0.02 0.02 0.03 0.05 0.07 0.09 0.13 0.20 0.21 0.22 0.25 0.24 0.22 0.20 0.19 0.20 0.23 0.26 0.24 0.22 0.16 0.13 0.12 0.10 0.09 0.09 0.08 0.07 0.06 0.04 0.03 0.03 0.02 0.02 0.01
0.01 0.02 0.03 0.03 0.04 0.04 0.06 0.08 0.08 0.10 0.17 0.18 0.18 0.20 0.23 0.23 0.20 0.17 0.17 0.19 0.19 0.19 0.18 0.17 0.14 0.13 0.11 0.08 0.06 0.05 0.05 0.04 0.03 0.02 0.02 0.02 0.01 0.01
0.01 0.02 0.03 0.03 0.04 0.05 0.06 0.06 0.05 0.06 0.09 0.12 0.14 0.16 0.17 0.19 0.21 0.18 0.17 0.17 0.18 0.17 0.14 0.12 0.11 0.10 0.11 0.10 0.06 0.04 0.03 0.02 0.02 0.02 0.01 0.01 0.00 0.00
0.01 0.02 0.03 0.03 0.03 0.05 0.05 0.04 0.04 0.03 0.05 0.09 0.09 0.11 0.15 0.16 0.19 0.22 0.20 0.17 0.16 0.15 0.13 0.10 0.08 0.06 0.05 0.05 0.04 0.02 0.02 0.01 0.01 0.01 0.01 0.00 0.00 0.00
0.02 0.02 0.02 0.02 0.03 0.04 0.04 0.03 0.04 0.04 0.05 0.07 0.08 0.08 0.11 0.12 0.14 0.18 0.18 0.15 0.13 0.13 0.12 0.09 0.07 0.05 0.04 0.03 0.02 0.01 0.01 0.01 0.01 0.00 0.00 0.00 0.00 0.00
0.01 0.01 0.01 0.01 0.01 0.03 0.03 0.02 0.02 0.03 0.04 0.05 0.07 0.08 0.11 0.11 0.10 0.11 0.11 0.11 0.10 0.09 0.08 0.07 0.06 0.05 0.04 0.03 0.01 0.01 0.01 0.01 0.00 0.00 0.00 0.00 0.00 0.00
0.01 0.01 0.02 0.01 0.01 0.02 0.02 0.02 0.02 0.02 0.03 0.04 0.06 0.06 0.09 0.09 0.08 0.07 0.06 0.05 0.06 0.06 0.05 0.05 0.04 0.03 0.03 0.02 0.01 0.01 0.01 0.01 0.00 0.00 0.00 0.00 0.00 0.00
0.00 0.01 0.01 0.02 0.01 0.01 0.01 0.01 0.01 0.02 0.03 0.03 0.03 0.03 0.04 0.06 0.06 0.07 0.06 0.04 0.03 0.04 0.04 0.03 0.02 0.02 0.02 0.02 0.01 0.01 0.01 0.01 0.01 0.00 0.00 0.00 0.00 0.00
MSLP
1010.54 1010.44 1010.39 1010.39 1010.41 1010.43 1010.42 1010.38 1010.30 1010.20 1010.09 1009.98 1009.92 1009.91 1009.97 1010.11 1010.33 1010.63 1011.01 1011.46 1011.97 1012.53 1013.13 1013.75 1014.38 1014.99 1015.59 1016.15 1016.68 1017.17 1017.62 1018.05 1018.46 1018.85 1019.23 1019.59 1019.92 1020.21
1010.17 1009.96 1009.80 1009.69 1009.61 1009.55 1009.51 1009.47 1009.43 1009.40 1009.39 1009.40 1009.44 1009.51 1009.64 1009.81 1010.03 1010.31 1010.65 1011.04 1011.50 1012.02 1012.59 1013.19 1013.82 1014.45 1015.08 1015.67 1016.23 1016.76 1017.24 1017.70 1018.14 1018.56 1018.97 1019.36 1019.73 1020.07
1009.85 1009.54 1009.28 1009.05 1008.87 1008.73 1008.64 1008.60 1008.59 1008.63 1008.71 1008.83 1008.98 1009.15 1009.35 1009.57 1009.81 1010.08 1010.39 1010.75 1011.16 1011.64 1012.17 1012.76 1013.38 1014.01 1014.64 1015.25 1015.83 1016.37 1016.88 1017.35 1017.81 1018.26 1018.69 1019.12 1019.54 1019.93
1009.60 1009.22 1008.87 1008.54 1008.27 1008.07 1007.93 1007.87 1007.89 1007.98 1008.13 1008.34 1008.58 1008.83 1009.10 1009.36 1009.63 1009.90 1010.20 1010.54 1010.92 1011.37 1011.88 1012.45 1013.06 1013.68 1014.31 1014.92 1015.50 1016.04 1016.55 1017.03 1017.50 1017.97 1018.43 1018.90 1019.36 1019.80
1009.43 1009.01 1008.59 1008.21 1007.87 1007.61 1007.43 1007.35 1007.37 1007.49 1007.68 1007.94 1008.24 1008.55 1008.85 1009.15 1009.44 1009.72 1010.01 1010.34 1010.71 1011.15 1011.65 1012.21 1012.81 1013.44 1014.06 1014.66 1015.23 1015.76 1016.26 1016.74 1017.22 1017.70 1018.19 1018.69 1019.20 1019.70
1009.31 1008.87 1008.44 1008.02 1007.65 1007.35 1007.14 1007.04 1007.05 1007.16 1007.36 1007.62 1007.93 1008.25 1008.56 1008.86 1009.15 1009.43 1009.72 1010.05 1010.44 1010.88 1011.40 1011.97 1012.57 1013.20 1013.83 1014.43 1014.99 1015.52 1016.01 1016.49 1016.97 1017.47 1017.98 1018.52 1019.07 1019.61
1009.19 1008.77 1008.34 1007.93 1007.55 1007.24 1007.01 1006.89 1006.87 1006.95 1007.11 1007.34 1007.61 1007.89 1008.17 1008.44 1008.70 1008.97 1009.26 1009.60 1010.00 1010.47 1011.01 1011.61 1012.25 1012.91 1013.55 1014.16 1014.74 1015.27 1015.77 1016.27 1016.76 1017.28 1017.82 1018.38 1018.96 1019.54
1009.02 1008.64 1008.25 1007.86 1007.50 1007.19 1006.96 1006.81 1006.75 1006.78 1006.88 1007.03 1007.22 1007.43 1007.63 1007.84 1008.05 1008.29 1008.57 1008.92 1009.34 1009.85 1010.44 1011.09 1011.78 1012.48 1013.17 1013.83 1014.43 1015.00 1015.53 1016.05 1016.57 1017.12 1017.69 1018.28 1018.90 1019.50
1008.78 1008.45 1008.10 1007.75 1007.42 1007.13 1006.89 1006.72 1006.62 1006.59 1006.61 1006.67 1006.75 1006.85 1006.96 1007.08 1007.23 1007.42 1007.68 1008.03 1008.48 1009.03 1009.67 1010.39 1011.15 1011.92 1012.68 1013.40 1014.07 1014.69 1015.27 1015.84 1016.40 1016.99 1017.60 1018.22 1018.86 1019.49
1008.48 1008.18 1007.87 1007.56 1007.27 1007.00 1006.76 1006.58 1006.44 1006.34 1006.28 1006.24 1006.21 1006.20 1006.20 1006.22 1006.29 1006.43 1006.66 1007.00 1007.47 1008.07 1008.77 1009.56 1010.40 1011.25 1012.10 1012.90 1013.65 1014.34 1015.00 1015.63 1016.25 1016.88 1017.53 1018.19 1018.85 1019.48
1008.15 1007.88 1007.59 1007.31 1007.04 1006.78 1006.56 1006.36 1006.19 1006.04 1005.90 1005.78 1005.66 1005.54 1005.44 1005.37 1005.37 1005.45 1005.65 1005.98 1006.47 1007.10 1007.85 1008.70 1009.62 1010.56 1011.49 1012.38 1013.21 1013.99 1014.73 1015.43 1016.11 1016.79 1017.47 1018.15 1018.82 1019.45
1007.86 1007.59 1007.31 1007.04 1006.77 1006.53 1006.30 1006.09 1005.89 1005.71 1005.53 1005.34 1005.15 1004.95 1004.78 1004.65 1004.58 1004.62 1004.79 1005.11 1005.60 1006.25 1007.04 1007.94 1008.92 1009.92 1010.93 1011.89 1012.81 1013.67 1014.47 1015.23 1015.97 1016.68 1017.39 1018.07 1018.73 1019.36
1007.65 1007.36 1007.08 1006.79 1006.52 1006.27 1006.04 1005.82 1005.61 1005.41 1005.20 1004.98 1004.75 1004.52 1004.30 1004.13 1004.04 1004.05 1004.20 1004.51 1004.99 1005.65 1006.45 1007.38 1008.38 1009.43 1010.48 1011.50 1012.47 1013.38 1014.23 1015.04 1015.80 1016.53 1017.23 1017.91 1018.54 1019.14
1007.54 1007.24 1006.93 1006.62 1006.33 1006.06 1005.81 1005.59 1005.38 1005.17 1004.96 1004.74 1004.51 1004.28 1004.06 1003.89 1003.79 1003.79 1003.93 1004.23 1004.71 1005.35 1006.14 1007.06 1008.06 1009.11 1010.17 1011.21 1012.20 1013.13 1014.00 1014.81 1015.57 1016.29 1016.97 1017.61 1018.21 1018.76
1007.50 1007.19 1006.85 1006.53 1006.21 1005.92 1005.66 1005.43 1005.22 1005.02 1004.83 1004.64 1004.43 1004.24 1004.05 1003.91 1003.83 1003.85 1004.00 1004.29 1004.74 1005.36 1006.11 1006.99 1007.95 1008.97 1009.99 1011.00 1011.97 1012.88 1013.73 1014.53 1015.26 1015.95 1016.58 1017.17 1017.71 1018.20
1007.48 1007.16 1006.82 1006.48 1006.14 1005.84 1005.57 1005.33 1005.13 1004.96 1004.80 1004.65 1004.50 1004.36 1004.24 1004.15 1004.12 1004.17 1004.33 1004.61 1005.04 1005.61 1006.31 1007.12 1008.01 1008.95 1009.90 1010.85 1011.76 1012.62 1013.42 1014.17 1014.85 1015.49 1016.07 1016.60 1017.08 1017.51
1007.39 1007.10 1006.77 1006.42 1006.08 1005.77 1005.50 1005.28 1005.09 1004.95 1004.84 1004.75 1004.67 1004.60 1004.56 1004.54 1004.56 1004.65 1004.83 1005.11 1005.51 1006.02 1006.64 1007.36 1008.15 1008.99 1009.84 1010.70 1011.52 1012.31 1013.04 1013.72 1014.35 1014.93 1015.45 1015.92 1016.35 1016.73
1007.16 1006.91 1006.61 1006.29 1005.97 1005.67 1005.41 1005.21 1005.05 1004.95 1004.89 1004.87 1004.86 1004.88 1004.92 1004.97 1005.06 1005.20 1005.40 1005.67 1006.03 1006.49 1007.03 1007.64 1008.32 1009.04 1009.78 1010.52 1011.24 1011.94 1012.60 1013.22 1013.79 1014.31 1014.79 1015.22 1015.60 1015.94
1006.75 1006.56 1006.31 1006.03 1005.75 1005.48 1005.26 1005.09 1004.97 1004.92 1004.91 1004.95 1005.03 1005.12 1005.24 1005.37 1005.53 1005.71 1005.93 1006.20 1006.53 1006.92 1007.38 1007.89 1008.45 1009.05 1009.67 1010.30 1010.93 1011.54 1012.13 1012.68 1013.21 1013.69 1014.14 1014.54 1014.91 1015.23
1006.21 1006.06 1005.87 1005.64 1005.41 1005.19 1005.01 1004.88 1004.81 1004.80 1004.85 1004.96 1005.10 1005.27 1005.46 1005.66 1005.87 1006.10 1006.34 1006.62 1006.92 1007.27 1007.65 1008.08 1008.54 1009.03 1009.54 1010.07 1010.60 1011.14 1011.66 1012.17 1012.66 1013.12 1013.56 1013.95 1014.32 1014.64
1005.58 1005.48 1005.33 1005.15 1004.96 1004.79 1004.65 1004.57 1004.54 1004.58 1004.69 1004.84 1005.04 1005.27 1005.52 1005.78 1006.04 1006.31 1006.59 1006.87 1007.16 1007.48 1007.81 1008.17 1008.56 1008.96 1009.39 1009.84 1010.29 1010.76 1011.24 1011.71 1012.17 1012.63 1013.06 1013.46 1013.84 1014.18
1004.99 1004.89 1004.76 1004.61 1004.46 1004.32 1004.22 1004.17 1004.18 1004.26 1004.39 1004.58 1004.82 1005.09 1005.38 1005.69 1006.00 1006.31 1006.61 1006.92 1007.22 1007.53 1007.84 1008.17 1008.51 1008.87 1009.24 1009.62 1010.03 1010.45 1010.88 1011.32 1011.77 1012.21 1012.65 1013.06 1013.45 1013.80
1004.52 1004.40 1004.25 1004.10 1003.96 1003.84 1003.75 1003.72 1003.74 1003.83 1003.97 1004.18 1004.43 1004.72 1005.03 1005.36 1005.71 1006.05 1006.40 1006.73 1007.07 1007.40 1007.73 1008.06 1008.39 1008.73 1009.08 1009.43 1009.80 1010.19 1010.59 1011.00 1011.42 1011.85 1012.28 1012.69 1013.09 1013.45
Thickness
5675 5678 5681 5685 5690 5693 5696 5698 5697 5697 5704 5716 5723 5733 5737 5740 5742 5741 5742 5742 5741 5740 5739 5737 5736 5735 5733 5731 5729 5727 5725 5723 5721 5718 5715 5712 5709 5707
5668 5671 5675 5679 5682 5686 5690 5693 5696 5696 5699 5710 5716 5724 5728 5732 5734 5735 5737 5737 5737 5736 5735 5734 5732 5731 5729 5728 5726 5724 5722 5719 5717 5714 5711 5708 5705 5702
5661 5664 5668 5672 5675 5679 5683 5686 5689 5692 5693 5701 5709 5715 5719 5722 5725 5728 5731 5731 5730 5731 5731 5729 5728 5727 5725 5724 5722 5720 5718 5715 5713 5710 5707 5704 5701 5698
5654 5657 5661 5666 5669 5673 5676 5679 5682 5686 5688 5691 5698 5704 5710 5715 5718 5720 5723 5724 5725 5725 5725 5724 5724 5722 5721 5719 5718 5716 5713 5711 5708 5706 5703 5699 5696 5693
5648 5650 5654 5658 5661 5665 5669 5672 5676 5681 5683 5685 5689 5695 5701 5706 5708 5711 5714 5716 5718 5719 5718 5718 5718 5717 5716 5714 5713 5711 5708 5706 5704 5701 5698 5694 5691 5688
5643 5646 5649 5652 5654 5658 5662 5665 5669 5672 5675 5678 5681 5686 5691 5697 5699 5701 5703 5707 5710 5712 5711 5711 5711 5711 5710 5709 5708 5706 5703 5701 5698 5695 5692 5689 5686 5682
5637 5641 5644 5647 5650 5652 5655 5658 5662 5665 5668 5671 5674 5678 5683 5687 5691 5695 5696 5698 5701 5704 5703 5704 5704 5704 5703 5702 5702 5700 5698 5696 5693 5690 5687 5684 5680 5677
5632 5635 5639 5642 5645 5648 5651 5654 5657 5659 5661 5665 5668 5672 5677 5682 5685 5688 5688 5688 5690 5696 5697 5696 5697 5697 5697 5697 5696 5694 5692 5690 5687 5684 5681 5678 5675 5671
5630 5632 5635 5638 5640 5642 5645 5649 5652 5656 5659 5661 5663 5668 5672 5677 5680 5680 5682 5683 5686 5690 5689 5687 5689 5690 5691 5691 5690 5688 5686 5684 5681 5678 5675 5672 5669 5666
5630 5631 5631 5632 5634 5635 5638 5642 5646 5651 5655 5658 5661 5665 5668 5672 5675 5677 5677 5677 5678 5680 5683 5680 5680 5681 5682 5683 5682 5681 5680 5677 5675 5672 5669 5666 5663 5659
5630 5629 5629 5629 5630 5631 5633 5636 5640 5645 5650 5654 5658 5661 5663 5666 5668 5668 5668 5668 5668 5670 5673 5674 5673 5672 5672 5673 5673 5673 5672 5670 5668 5665 5662 5659 5656 5653
5628 5628 5627 5626 5627 5628 5629 5631 5634 5639 5643 5647 5651 5654 5657 5660 5662 5664 5665 5665 5664 5663 5666 5667 5666 5665 5662 5663 5664 5664 5663 5661 5659 5657 5655 5652 5649 5646
5626 5625 5625 5625 5626 5626 5627 5629 5632 5635 5638 5641 5645 5648 5651 5654 5656 5659 5661 5662 5662 5661 5663 5663 5661 5660 5659 5655 5654 5655 5655 5653 5650 5648 5646 5645 5643 5641
5625 5625 5625 5625 5625 5626 5627 5628 5631 5633 5635 5637 5640 5643 5645 5648 5651 5653 5656 5658 5660 5661 5661 5662 5660 5658 5655 5650 5649 5647 5647 5646 5644 5642 5640 5638 5636 5635
5627 5627 5626 5626 5626 5627 5628 5628 5629 5630 5632 5634 5636 5639 5642 5644 5646 5647 5649 5651 5652 5654 5655 5657 5657 5654 5653 5650 5647 5644 5641 5639 5638 5637 5635 5633 5632 5631
5629 5628 5628 5628 5627 5626 5627 5627 5628 5629 5630 5631 5633 5635 5637 5639 5640 5641 5642 5643 5643 5643 5646 5648 5650 5650 5648 5647 5644 5640 5639 5636 5635 5633 5631 5629 5628 5627
5628 5628 5628 5629 5628 5628 5628 5628 5628 5628 5628 5629 5630 5631 5632 5633 5634 5634 5635 5637 5636 5636 5637 5638 5640 5641 5642 5641 5637 5635 5633 5632 5631 5630 5627 5625 5625 5625
5628 5628 5629 5629 5628 5628 5627 5627 5626 5626 5626 5626 5626 5626 5627 5628 5628 5629 5629 5631 5630 5630 5631 5631 5631 5630 5629 5630 5633 5632 5629 5628 5627 5626 5625 5622 5622 5623
5628 5629 5630 5630 5630 5629 5628 5627 5626 5626 5625 5624 5624 5623 5624 5624 5624 5625 5625 5625 5625 5625 5625 5625 5626 5626 5624 5624 5625 5627 5627 5626 5623 5621 5621 5621 5620 5621
5631 5631 5631 5632 5631 5630 5629 5628 5627 5626 5625 5623 5623 5622 5622 5621 5621 5621 5621 5621 5621 5620 5619 5620 5621 5623 5623 5623 5622 5623 5625 5624 5621 5619 5618 5618 5618 5619
5634 5634 5634 5633 5632 5631 5630 5629 5627 5626 5625 5624 5622 5621 5621 5620 5619 5619 5618 5618 5617 5617 5616 5617 5618 5620 5621 5621 5619 5618 5618 5620 5621 5619 5616 5614 5612 5612
5634 5634 5635 5634 5633 5631 5630 5628 5627 5626 5625 5624 5623 5622 5621 5620 5619 5618 5617 5616 5616 5615 5615 5614 5614 5614 5615 5616 5615 5614 5613 5613 5614 5615 5616 5617 5614 5612
5633 5633 5633 5633 5631 5630 5629 5627 5626 5625 5625 5624 5623 5622 5621 5620 5619 5618 5617 5616 5615 5613 5612 5610 5610 5611 5612 5613 5612 5612 5611 5610 5609 5608 5610 5613 5614 5614